User: anonymous
Location: Caltech
(34.1382°N, 118.1253°W)
Time: 04:48:17
(UTC-07:00)
Language:

AO-27 - Orbit

View from above orbital plane
View from above orbital plane
View from above satellite
View from above satellite

Ground track
Ground track

The orbit data is extracted from the following two-line orbital elements,

1 22825U 93061C   14262.10922579  .00000127  00000-0  66610-4 0  7629
2 22825 098.6709 207.7248 0008768 030.5495 035.2285 14.29746658 94207
Epoch (UTC): 19 September 2014 02:37:17
Eccentricity: 0.0008768
inclination: 98.6709°
perigee height: 786 km
apogee height: 799 km
right ascension of ascending node: 207.7248°
argument of perigee: 30.5495°
revolutions per day: 14.29746658
mean anomaly at epoch: 35.2285°
orbit number at epoch: 9420

The dashed part of the orbit path shows where the satellite is in the earth's shadow,  

DLR